Location: Bartlow
(52.0833°N, 0.3167°E)
Time: 04:50:51
(UTC+00:00)

Meteor 2-17 Rocket - Pass Details

Date: 30 April 2024
Orbit: 934 x 957 km, 82.5° (Epoch: 25 May)

Event Time Altitude Azimuth Distance (km) Brightness Sun altitude
Exits shadow 02:52:00 10° 260° (W) 2,661 6.3 -13.0°
Maximum altitude 02:56:06 19° 303° (WNW) 2,113 6.2 -12.5°
Drops below altitude 10° 03:00:15 10° 347° (NNW) 2,666 7.2 -12.1°
Sets 03:03:36 0° 5° (N) 3,611 8.3 -11.7°
